Home   Weather   Riehen   Past weeks

Flag for Switzerland Past Weather in Riehen, Basel-Stadt, Switzerland — Yesterday and Last 2 Weeks

Now
72 °F

Overcast.


Feels Like: 77 °F
Forecast: 54 / 68 °F
Wind: 6 mph from West

Location: Bale-Mulhouse

Current Time: Sep 30, 2016 at 2:00:26 PM

Latest Report: Sep 30, 2016 at 1:00 PM


Visibility: 31 mi

Pressure: 30.02 "Hg

Humidity: 42%

Dew Point: 47 °F

Location of RiehenLocation

Past Weather in Riehen — Graph

°F

Riehen Temperature Yesterday

Maximum temperature yesterday: 79 °F (at 4:00 PM)
Minimum temperature yesterday: 51 °F (at 1:00 AM)
Average temperature yesterday: 62 °F

High & Low Weather Summary for the Past Weeks

 TemperatureHumidityPressure
High79 °F (Sep 29, 4:00 PM)98% (Sep 17, 8:00 AM)30.45 "Hg (Sep 17, 8:00 AM)
Low42 °F (Sep 24, 7:00 AM)39% (Sep 25, 4:00 PM)29.90 "Hg (Sep 15, 12:00 PM)
Average59 °F82%30.14 "Hg
* Reported Sep 15 12:00 PM — Sep 30 12:00 PM, Riehen, Weather by CustomWeather, © 2016

Note: Actual official high and low records may vary slightly from our data, if they occured in-between our weather recording intervals... More about our weather records

Advertising

Riehen Weather History for the Previous 24 Hours

Scroll right to see more
 ConditionsComfort  
Time TempWeatherWind HumidityBarometerVisibility
12:00 PM
Fri, Sep 30
70 °FScattered clouds.5 mph48%30.03 "Hg25 mi
11:00 AM67 °FOvercast.1 mph61%30.05 "Hg25 mi
10:00 AM62 °FPassing clouds.3 mph73%30.06 "Hg25 mi
9:00 AM56 °FPassing clouds.3 mph86%30.06 "Hg22 mi
8:00 AM50 °FPassing clouds.5 mph96%30.07 "Hg19 mi
7:00 AM48 °FPassing clouds.3 mph94%30.06 "Hg7 mi
6:00 AM50 °FPassing clouds.5 mph97%30.06 "Hg12 mi
5:00 AM50 °FClear.2 mph94%30.06 "Hg12 mi
4:00 AM51 °FCool.5 mph96%30.08 "Hg11 mi
3:00 AM50 °FCool.2 mph92%30.09 "Hg7 mi
2:00 AM52 °FCool.3 mph95%30.10 "Hg6 mi
1:00 AM52 °FCool.2 mph91%30.10 "Hg11 mi
12:00 AM54 °FClear.2 mph86%30.11 "Hg19 mi
11:00 PM
Thu, Sep 29
55 °FClear.2 mph87%30.11 "Hg19 mi
10:00 PM57 °FClear.2 mph85%30.11 "Hg19 mi
9:00 PM60 °FClear.2 mph80%30.11 "Hg19 mi
8:00 PM65 °FPassing clouds.5 mph72%30.09 "Hg19 mi
6:00 PM77 °FPassing clouds.8 mph46%30.08 "Hg19 mi
5:00 PM79 °FPassing clouds.8 mph41%30.09 "Hg19 mi
4:00 PM79 °FPassing clouds.9 mph42%30.11 "Hg19 mi
3:00 PM78 °FWarm.9 mph44%30.13 "Hg31 mi
2:00 PM76 °FPassing clouds.3 mph50%30.16 "Hg19 mi
Weather by CustomWeather, © 2016

See weather overviewHow to use our weather pages